Location: Home
(42.5358°N, 72.7383°W)
Time: 16:48:45
(UTC-05:00)

N. Korean satellite - Pass Details

Date: 26 October 2021
Orbit: 446 x 495 km, 97.3° (Epoch: 07 December)

Event Time Altitude Azimuth Distance (km) Brightness Sun altitude
Rises 05:21:32 0° 26° (NNE) 2,589 10.6 -21.9°
Reaches altitude 10° 05:23:59 10° 42° (NE) 1,696 9.9 -21.5°
Maximum altitude 05:26:52 22° 94° (E) 1,125 9.3 -21.0°
Drops below altitude 10° 05:29:42 10° 146° (SSE) 1,668 9.7 -20.4°
Sets 05:32:05 0° 163° (SSE) 2,533 10.4 -20.0°
